Temp
10 9 10 10 10 9 9 9 9 -2 1 5 5 5 5 4 4 3 4 4 3 3 3 2 0 0 1 1 1 1 1 2 2 2 2 3 3 4
9 8 9 9 9 8 8 8 8 7 -1 5 5 4 4 3 3 3 3 3 3 3 3 2 -0 -0 0 0 1 1 1 1 1 1 2 2 2 3
8 8 8 8 8 7 7 7 6 6 4 3 3 4 3 3 3 3 2 3 3 3 3 1 -1 -1 -0 -0 -0 -0 -0 0 0 1 1 1 1 1
8 7 7 7 6 6 6 6 6 5 4 2 1 2 2 2 2 2 2 2 2 2 2 1 -1 -1 -1 -1 -1 -1 -1 -1 -0 -0 -0 -0 -0 0
8 7 7 6 6 6 5 5 4 3 3 1 0 -0 0 1 1 1 1 1 2 1 1 1 1 -1 -2 -1 -2 -2 -1 -0 -1 -2 -2 -1 -1 -0
7 7 7 7 6 6 5 4 3 2 1 0 -0 -1 -1 -0 -1 -1 -2 -1 -1 1 0 -0 -1 -2 -2 -3 -2 -3 -1 -3 -2 -3 -2 -1 -1 -1
7 6 6 6 6 6 5 3 2 1 0 -1 -1 -2 -1 -1 -2 -3 -4 -4 -2 -0 -2 -2 -2 -2 -1 -2 -3 -3 -4 -4 -3 -2 -2 -1 -1 -1
6 6 6 5 5 4 3 3 2 1 -0 -1 -2 -2 -2 -2 -2 -3 -4 -5 -5 -1 -4 -5 -4 -3 -3 -3 -4 -4 -4 -3 -3 -3 -2 -2 -1 -1
4 5 5 4 4 3 2 2 1 0 -0 -0 -1 -2 -2 -2 -3 -4 -4 -5 -6 -4 -5 -6 -5 -4 -4 -5 -5 -5 -4 -3 -3 -3 -2 -2 -2 -1
3 4 5 4 3 2 1 0 -0 -1 -1 -2 -2 -2 -3 -3 -4 -4 -5 -5 -5 -3 -4 -7 -4 -5 -5 -5 -5 -4 -4 -3 -3 -3 -3 -3 -2 -2
2 3 3 3 3 2 1 -0 -1 -1 -1 -2 -2 -3 -3 -3 -3 -4 -4 -7 -7 -6 -5 -7 -5 -7 -5 -5 -3 -4 -4 -5 -4 -4 -3 -3 -3 -2
0 1 1 3 2 0 0 -0 -1 -1 -2 -2 -2 -3 -2 -3 -3 -4 -6 -7 -8 -8 -4 -7 -7 -7 -7 -5 -5 -6 -5 -5 -5 -4 -4 -3 -3 -3
-1 -1 -0 2 1 -1 -1 -1 -1 -2 -3 -3 -3 -3 -3 -3 -3 -4 -5 -7 -8 -8 -5 -7 -8 -8 -8 -7 -6 -5 -6 -5 -5 -5 -4 -4 -4 -3
-1 -1 0 -0 -0 -1 -2 -2 -2 -3 -3 -3 -4 -4 -4 -4 -4 -5 -5 -5 -6 -7 -6 -7 -8 -8 -8 -7 -7 -5 -5 -6 -5 -5 -5 -5 -5 -4
-1 -0 -0 -1 -1 -1 -2 -3 -4 -4 -4 -4 -5 -5 -5 -5 -5 -5 -5 -6 -6 -4 -5 -7 -8 -8 -8 -8 -7 -7 -6 -6 -6 -5 -6 -5 -4 -4
-1 -1 -1 -1 -2 -3 -4 -5 -4 -4 -4 -5 -6 -6 -6 -6 -6 -7 -7 -8 -9 -7 -5 -7 -8 -8 -8 -7 -7 -7 -7 -6 -6 -5 -5 -5 -4 -4
-2 -2 -3 -4 -4 -5 -5 -6 -6 -6 -6 -6 -7 -7 -7 -7 -7 -7 -8 -9 -10 -10 -9 -8 -8 -8 -8 -8 -8 -7 -7 -6 -5 -5 -5 -5 -3 -3
-3 -5 -5 -5 -6 -6 -7 -7 -7 -7 -7 -7 -7 -8 -8 -8 -8 -8 -8 -10 -10 -9 -9 -8 -8 -8 -8 -7 -6 -6 -5 -5 -5 -5 -5 -3 -3 -3
-5 -5 -6 -6 -7 -7 -7 -7 -7 -7 -7 -8 -8 -8 -8 -8 -9 -9 -9 -10 -10 -9 -8 -8 -9 -8 -8 -7 -6 -5 -6 -6 -6 -4 -4 -4 -4 -3
-5 -6 -7 -7 -7 -8 -8 -8 -8 -8 -8 -8 -8 -8 -8 -9 -9 -9 -9 -10 -9 -8 -8 -9 -8 -8 -8 -7 -7 -7 -6 -5 -5 -4 -4 -4 -3 -2
-7 -7 -7 -7 -8 -8 -8 -8 -8 -8 -8 -8 -8 -8 -8 -8 -8 -9 -9 -9 -8 -9 -9 -9 -8 -8 -8 -8 -7 -6 -5 -5 -4 -4 -4 -4 -3 -1
-7 -8 -8 -8 -9 -9 -9 -9 -9 -8 -8 -8 -8 -8 -8 -8 -9 -9 -9 -10 -9 -10 -10 -9 -8 -8 -8 -8 -7 -7 -6 -5 -5 -4 -3 -3 -3 -0
-8 -8 -9 -9 -9 -9 -9 -9 -9 -9 -9 -9 -8 -8 -8 -8 -8 -8 -9 -10 -10 -10 -9 -9 -8 -8 -8 -8 -7 -7 -6 -6 -4 -4 -4 -1 -1 1
Height
833 837 840 841 843 845 847 848 851 862 857 852 855 854 856 857 857 854 850 847 844 841 838 835 832 829 825 821 815 810 805 800 796 791 787 783 779 774
829 833 836 838 840 842 845 846 848 851 855 851 852 852 853 854 854 851 848 843 841 837 833 830 827 824 821 816 809 803 798 793 788 784 779 775 770 766
824 828 832 835 837 840 841 843 845 849 850 850 849 849 849 850 849 846 843 839 836 832 828 825 822 819 815 812 805 798 792 787 782 776 771 766 761 757
818 823 827 831 833 838 838 840 843 846 847 847 846 847 846 846 843 841 838 834 829 827 822 818 816 813 809 805 798 791 784 778 772 767 762 757 753 748
811 817 821 825 829 832 835 837 839 842 845 844 844 841 841 840 839 837 833 828 824 819 816 811 810 806 801 798 791 783 776 769 765 759 754 748 744 739
805 812 815 819 823 826 830 833 836 840 842 842 841 840 839 838 837 832 825 823 816 811 809 806 804 798 793 788 782 775 767 761 756 751 746 740 735 729
799 805 810 815 820 823 826 829 833 836 839 841 840 839 837 835 835 832 827 820 811 805 802 800 793 788 783 778 772 767 757 752 746 742 738 731 725 718
792 798 804 809 816 818 822 826 829 831 835 839 838 837 835 835 833 830 827 821 812 806 797 790 788 779 774 770 763 757 752 743 739 734 729 722 715 708
785 792 796 802 808 813 818 821 824 827 831 833 832 832 832 831 831 828 825 823 816 803 797 785 781 771 767 760 754 748 742 736 732 725 719 712 704 696
779 784 789 795 801 808 814 818 821 825 828 829 829 829 829 828 828 825 821 817 810 802 797 781 773 763 755 748 741 738 736 732 724 717 709 701 692 684
774 779 784 790 797 803 809 813 817 820 825 826 824 825 825 825 824 821 818 813 806 799 790 784 772 753 744 734 733 730 726 722 714 706 696 688 680 671
771 774 779 786 793 799 803 808 812 817 821 821 821 822 821 821 821 819 815 812 809 798 791 787 777 773 741 726 727 719 712 708 702 693 684 676 668 660
766 769 776 782 789 795 800 804 809 814 817 817 818 818 818 817 817 815 812 810 807 803 791 791 779 777 773 745 711 709 705 696 689 677 672 664 657 651
762 766 771 778 786 793 798 802 806 809 813 814 814 815 814 814 813 810 807 805 802 796 788 787 780 775 766 750 733 703 694 692 684 669 660 650 642 635
759 764 770 777 785 791 796 800 802 806 809 810 811 811 812 812 808 804 802 799 795 789 784 781 775 768 763 753 733 706 698 680 676 664 656 641 627 621
760 766 772 778 783 789 794 797 801 804 807 808 808 808 809 808 804 801 798 794 790 782 777 774 769 764 753 747 735 710 695 688 665 659 649 633 616 607
759 764 770 775 780 786 791 794 800 804 806 806 806 806 806 804 801 799 795 792 789 779 771 766 762 757 749 739 715 709 693 678 666 651 641 624 606 593
758 762 768 773 780 785 790 795 799 802 803 804 804 804 803 801 799 796 793 790 785 778 770 761 753 741 733 726 719 691 687 676 660 645 634 620 600 584
755 761 767 773 779 784 790 794 797 800 801 802 802 802 801 799 795 792 791 787 781 776 768 760 752 744 727 707 699 698 683 667 652 636 627 615 598 577
754 760 766 773 780 785 790 793 796 797 798 799 799 799 798 796 792 789 787 782 777 771 765 758 751 745 736 721 699 672 678 665 650 632 617 604 589 573
756 761 766 773 780 786 790 792 794 795 796 796 797 796 795 792 790 787 783 779 776 770 761 752 746 740 728 716 699 677 659 657 649 632 616 601 582 566
759 764 770 776 781 786 789 791 793 794 795 795 794 793 792 789 787 783 779 776 771 766 759 749 740 731 722 714 697 680 659 641 631 617 602 599 590 571
761 768 773 778 782 784 787 789 791 792 793 793 793 791 789 786 784 781 777 773 767 762 755 744 735 727 718 708 697 678 662 646 630 613 597 587 580 572
Wind_Speed
28 24 22 19 16 14 12 10 6 3 3 5 7 10 11 12 16 23 23 22 21 22 24 23 24 27 28 27 28 30 32 33 34 36 37 38 38 39
30 26 24 21 19 16 14 12 11 7 2 6 8 8 9 14 19 22 23 22 23 24 25 27 27 28 28 28 30 32 33 35 36 37 38 38 39 40
32 28 27 23 21 19 17 15 14 12 8 4 8 9 14 16 19 20 22 24 26 27 29 30 28 29 28 31 31 34 35 36 38 39 39 39 39 40
35 31 29 26 23 21 19 17 16 15 11 9 8 10 14 17 21 24 24 24 27 30 33 33 28 26 30 31 33 36 38 38 39 39 39 39 39 39
39 36 34 29 27 25 23 20 18 16 15 13 9 12 18 20 23 26 26 28 33 36 38 22 25 32 32 35 35 35 37 39 39 39 39 38 40 42
41 38 36 34 31 28 25 23 19 18 16 16 16 17 18 20 23 24 31 33 39 40 24 25 37 38 39 33 33 34 39 39 39 38 39 41 42 44
40 40 38 34 31 27 26 24 21 19 17 16 15 16 19 19 21 22 25 34 38 24 25 39 45 46 43 40 39 36 36 36 39 39 40 42 43 43
43 40 38 33 31 26 25 22 21 21 19 16 14 15 19 18 21 24 27 22 12 19 36 41 42 41 41 38 35 32 37 38 39 40 40 41 43 45
43 43 38 35 31 27 23 20 19 17 16 15 15 14 16 15 18 23 23 22 21 39 36 30 34 36 35 37 35 34 33 34 36 38 42 46 44 44
41 41 40 38 33 30 25 21 18 17 17 15 14 13 13 14 16 19 21 25 28 34 29 16 32 35 40 41 32 23 25 31 41 44 42 45 45 46
35 36 36 36 34 29 27 25 20 18 16 13 10 10 11 13 13 16 19 21 16 19 28 14 26 45 37 29 12 16 40 39 40 42 45 44 46 45
28 30 31 34 31 27 28 26 21 17 13 11 10 10 10 10 11 13 15 16 16 11 16 20 23 24 19 18 28 39 40 32 43 44 49 44 43 43
25 27 29 30 28 24 22 22 18 12 11 9 9 8 9 11 13 14 16 17 19 16 34 24 20 29 18 32 44 45 46 37 50 48 44 45 43 41
27 27 31 27 27 23 18 16 12 11 9 7 6 8 11 14 16 17 19 20 22 28 34 29 27 30 31 37 37 45 55 47 45 53 47 46 50 46
25 30 30 27 25 21 16 14 13 10 6 4 5 8 11 14 17 21 23 24 25 30 30 29 31 36 32 35 42 54 45 55 47 43 51 49 50 47
23 25 28 27 27 21 18 13 9 6 6 4 6 8 11 15 19 22 25 28 26 32 35 31 30 32 35 36 39 49 49 35 54 47 47 52 54 47
29 29 28 27 27 24 17 11 9 8 5 3 5 8 12 16 21 23 26 26 21 25 33 33 30 31 33 37 46 38 44 45 47 49 49 47 51 52
29 26 23 24 23 22 16 13 9 6 4 3 4 7 12 17 22 26 25 24 22 27 32 33 36 36 32 25 29 45 38 39 50 48 44 39 42 50
26 23 23 22 22 19 16 12 10 6 3 2 4 7 11 16 20 25 26 22 23 26 30 32 31 29 16 20 38 23 41 47 46 45 42 42 41 48
28 25 24 24 21 17 13 11 7 3 1 2 4 8 13 17 21 23 25 22 25 27 30 29 28 28 26 21 35 60 45 42 42 42 44 44 45 43
24 25 25 22 18 14 11 8 5 1 1 3 5 9 14 18 21 22 27 26 29 27 27 29 34 37 39 37 27 39 48 45 42 42 41 34 26 25
25 25 22 19 16 12 9 5 3 2 3 4 7 10 16 19 21 23 28 26 28 29 30 34 37 34 34 30 30 38 46 53 50 49 51 37 20 7
26 24 20 17 14 11 8 5 3 4 5 6 9 13 18 20 20 22 28 27 28 29 31 34 36 32 33 31 35 36 42 45 41 46 50 49 45 32
Wind_Direction
223 226 226 224 223 222 218 214 192 179 259 224 214 230 239 261 294 312 316 319 319 319 318 313 310 307 307 306 306 306 305 304 302 299 297 295 295 294
222 223 223 222 219 219 219 218 221 215 214 218 221 244 251 274 304 313 317 317 317 318 320 316 309 306 305 305 305 306 304 302 301 299 296 296 296 295
221 220 221 220 218 217 215 216 220 223 225 248 241 250 271 291 306 311 315 315 317 321 323 316 309 305 303 306 306 304 303 302 301 299 299 298 297 296
219 217 217 216 215 217 217 217 221 227 232 249 269 272 285 304 313 315 318 318 320 322 326 320 307 308 307 305 307 305 304 303 300 299 298 298 297 297
221 217 217 214 213 214 215 216 220 226 236 245 270 284 300 312 318 319 322 323 323 327 327 322 320 314 307 305 305 303 303 305 299 300 300 300 299 298
223 222 221 218 219 216 216 217 217 223 233 247 265 282 299 313 320 324 325 326 326 328 328 322 319 314 310 307 308 306 312 300 299 299 300 299 299 296
224 223 224 224 226 224 221 217 214 219 227 241 263 284 298 314 322 323 318 324 325 329 320 321 320 318 321 321 316 307 298 295 293 296 299 299 297 296
222 221 222 221 223 221 223 223 226 219 221 228 247 264 286 304 315 320 322 324 331 324 321 313 317 313 315 311 305 292 293 291 296 300 300 300 298 296
225 223 218 217 216 213 213 215 215 219 231 239 245 260 284 303 314 315 317 310 293 310 315 303 308 303 305 301 296 292 290 294 298 299 299 299 298 296
226 225 220 215 211 208 204 205 208 210 216 231 258 277 285 306 309 309 309 309 312 320 325 292 315 305 308 302 303 286 295 301 300 300 300 299 297 298
225 225 220 216 210 202 200 200 206 217 230 243 255 267 282 296 305 310 320 330 323 318 323 300 317 316 314 302 297 294 308 302 300 302 302 301 302 302
216 220 215 216 205 194 202 203 208 218 229 239 253 269 290 304 314 319 327 324 314 320 322 333 317 336 320 303 310 309 311 307 305 305 305 306 305 302
200 197 198 207 193 183 199 202 210 217 220 239 267 290 304 315 321 328 332 326 308 281 310 319 305 313 300 307 311 312 311 312 308 306 307 306 305 303
193 191 195 182 174 175 184 191 188 201 218 245 279 308 322 328 330 334 332 330 320 303 313 313 288 298 302 300 295 306 308 309 306 305 307 306 303 301
197 197 180 167 167 168 177 163 175 198 217 245 289 314 324 326 331 341 337 335 327 323 323 321 309 304 292 287 291 299 305 306 306 305 308 304 304 303
182 167 159 159 167 164 156 164 172 193 220 248 298 314 325 336 342 345 339 338 320 321 332 328 314 304 291 290 290 290 296 295 302 304 306 305 304 303
158 150 148 147 151 160 163 165 176 195 215 267 306 327 336 341 341 342 341 332 309 307 311 317 313 307 298 292 291 284 291 296 303 306 310 306 308 309
152 144 143 151 158 168 166 168 180 189 222 280 323 341 342 343 339 340 337 328 311 312 311 317 318 318 314 301 288 294 300 299 307 308 309 308 307 307
152 152 154 157 158 162 168 175 178 193 233 288 337 356 352 346 343 343 336 320 315 311 313 316 319 322 320 316 318 308 309 307 308 310 312 311 305 303
157 151 146 154 157 159 165 171 173 184 221 339 360 352 354 347 341 338 329 319 317 315 314 318 318 317 312 306 305 306 313 308 311 310 312 310 301 300
142 144 153 153 153 157 164 163 159 140 345 348 347 348 351 346 337 334 331 323 322 317 314 317 315 317 312 310 303 308 314 320 315 311 314 314 304 307
140 141 144 144 146 149 143 129 99 24 354 346 346 350 347 343 337 336 330 315 318 316 311 313 316 321 321 316 309 310 314 321 327 329 333 332 313 307
143 141 141 145 142 136 131 108 54 11 352 343 342 344 344 341 342 333 325 316 318 318 318 316 320 323 321 320 316 314 319 323 329 333 328 339 337 338